Погода в Казаклии

Молдова     46°00′30″N   28°39′44″E
темп.,
°C
ветер,
м/с
пор.,
м/с
влажн.,
%
обл.,
%
осадки,
мм/ч
давл.,
гПа
погр.,
м
17 мая, вт
вт1700:00+17всв1156100 0.0 101711
03:00+17з006099 0.2 101711
06:00+17ююз1161100 0.0 101615
09:00+20ссв2350100 0.0 1016638
12:00+23св2240100 0.0 10161613
15:00+25сз343299 0.0 10142745
18:00+24с5437100 0.0 1012945
21:00+16с2474100 1.3 1014220
18 мая, ср
ср1800:00+15ссв1380100 0.6 1013175
03:00+13с91289100 3.1 1012683
06:00+11с91581100 3.8 1014878
09:00+12с111651100 3.9 10171598
12:00+14с11143866 0.0 10182441
15:00+14ссз12134097 0.0 10202578
18:00+12ссз1013555 0.2 10221632
21:00+11с815685 0.3 10241287
19 мая, чт
чт1900:00+10ссз715685 0.0 1025674
03:00+9ссз5126816 0.0 1026326
06:00+10ссз31062100 0.0 1026392
09:00+13ссз68575 0.0 1028729
12:00+17ссз794325 0.0 10272045
15:00+19с78355 0.0 10262168
18:00+19ссз673713 0.0 10252146
21:00+15сз335655 0.0 102635
20 мая, пт
пт2000:00+13зсз22585 0.0 102614
03:00+12зсз22590 0.0 102514
06:00+11зсз22615 0.0 102512
09:00+18з344559 0.0 1025505
12:00+22зюз43335 0.0 10241390
15:00+25зюз4428100 0.0 10211825
18:00+24зюз453099 0.0 10191555
21:00+19ю4545100 0.0 101861
21 мая, сб
сб2100:00+16ююз476099 0.0 1017114
03:00+15юз3357100 0.0 101525
06:00+15з225611 0.0 101418
09:00+21зюз453770 0.0 1013325
12:00+26зюз673058 0.0 10111142
15:00+28з673133 0.0 10091819
18:00+26сз684599 0.0 1008827
21:00+21ссз476223 0.0 1009138